DELTA 1 DEB, 2977

Orbit data source: Space-Track

DELTA 1 DEB, 2977 is space debris in SSO originally from a launch on Thu, 20 Apr 1967 UTC launched from the Air Force Western Test Range (AFWTR). Debris objects in space refer to the collection of defunct objects orbiting the Earth. Examples of debris include non-operational satellites, rocket bodies, and fragments generated from explosions, collisions, or faulty payload assembly.

Loading next visibility...
Identifier
2977, 1967-036D
Orbit
SSO
Last TLE update
2 days ago
Origin
Manufacturer
Unknown
Mission
Spacecraft
Bus & Motor
Unknown
Mass
Unknown
Launch date (UTC)
1967-04-20 (58 years ago)
Launch vehicle
Unknown
Launch site
Air Force Western Test Range (AFWTR)
Object type
Payload
Rocket body
Debris
Shape & HBR
Unknown
Radar Cross Section
Small (<0.1 m²)

Expand to show TLE details & history

TLE from 2 days ago
0 DELTA 1 DEB
1 02977U 67036D   25197.86687012 -.00000014  00000-0  18387-3 0  9995
2 02977 101.5612 162.5199 0059331 202.4955 216.9687 12.56852179671261
Epoch: 2025-07-16T20:48Z
TLE epoch observation values (Epoch: 2025-07-16T20:48:17.578Z)
Latitude
57.26326°
Longitude
-102.95382°
Altitude
1,482.533 km
Speed
7.111 km/s
True Right ascension
09h 36m 14s
True Declination
57° 07' 16"
Sunlit
Object was in daylight at epoch
Visualization orbit readout
Latitude
12.90568°
Longitude
100.23052°
Altitude
1,398.248 km
Speed
7.18 km/s
Apparent Right ascension
23h 25m 10s
Apparent Declination
-10° 40' 30"
Sunlit
Object is in daylight
Visualization observer readout
Local Sidereal Time
11:50:16
Azimuth
12.495° NNE
Elevation
-60.233°
Doppler factor
1
Orbital elements
Apogee altitude
1,479.838 km
Perigee altitude
1,387.144 km
Semi-major axis
7,811.628 km
Eccentricity
0.00593
Inclination
101.5612°
RAAN
162.5199°
Arg. of periapsis
202.4955°
True anomaly
216.56225°
Mean anomaly
216.9687°
Eccentric anomaly
216.76523°
Mean motion
3.14363 °/min
Orbital period
114.52 mins
BSTAR
0.00018387
Loading maneuver chart data...
Loading SW <> Apogee altitude chart data...
Loading historical data...
Loading historical data...
Loading historical data...
Loading historical data...
Loading historical data...
Loading historical data...
Loading historical data...
Other satellites on launch #36 in the year 1967 (1967-04-20 UTC)
|